Huntsville, AL

5:54 AM CDT on August 30, 2016 (GMT -0500)
Huntsville International

Weather History for KHSV - January, 2013

Change the Weather History Date:

Thursday, January 3, 2013

  Actual Average Record
Temperature  
Mean Temperature 38 °F 41 °F  
Max Temperature 46 °F 51 °F 72 °F (2000)
Min Temperature 30 °F 32 °F 5 °F (1928)
Degree Days  
Heating Degree Days 27 24  
Month to date heating degree days 74 72  
Since 1 July heating degree days 1182 1253  
Cooling Degree Days 0 0  
Month to date cooling degree days 0 0  
Year to date cooling degree days 0 0  
Moisture  
Dew Point 28 °F    
Average Humidity 69    
Maximum Humidity 89    
Minimum Humidity 49    
Precipitation  
Precipitation 0.00 in 0.16 in 4.83 in (1982)
Month to date precipitation 1.52 0.47  
Year to date precipitation 1.52 0.47  
Snow  
Snow 0.00 in - - ()
Month to date snowfall 0.0  
Since 1 July snowfall T  
Snow Depth 0.00 in    
Sea Level Pressure  
Sea Level Pressure 30.31 in    
Wind  
Wind Speed 6 mph (NNW)    
Max Wind Speed 12 mph    
Max Gust Speed 18 mph    
Visibility 9 miles    
Events      
T = Trace of Precipitation, MM = Missing Value Source: NWS Daily Summary

Daily Weather History Graph

Daily Weather History Graph

Search for Another Location

Airport or City:

Trip Planner

Search our weather history database for the weather conditions in past years. The results will help you decide how hot, cold, wet, or windy it might be!

Date:

Astronomy

Jan. 03, 2013 Rise Set
Actual Time 6:54 AM CST 4:49 PM CST
Civil Twilight 6:26 AM CST 5:17 PM CST
Nautical Twilight 5:55 AM CST 5:48 PM CST
Astronomical Twilight 5:24 AM CST 6:19 PM CST
Moon 11:06 PM CST (1/3) 10:22 AM CST (1/3)
Length of Visible Light 10h 50m
Length of Day
9h 54m
Waning Gibbous, 65% of the Moon is Illuminated
Jan 3
Waning Gibbous
Jan 4
Last Quarter
Jan 11
New
Jan 18
First Quarter
Jan 26
Full

Hourly Weather History & Observations

Time (CST) Temp. Windchill Dew Point Humidity Pressure Visibility Wind Dir Wind Speed Gust Speed Precip Events Conditions
12:53 AM 34.0 °F 28.8 °F 30.9 °F 89% 30.21 in 6.0 mi North 5.8 mph - N/A   Overcast
1:53 AM 33.8 °F 29.6 °F 30.2 °F 87% 30.21 in 7.0 mi NNW 4.6 mph - N/A   Overcast
2:53 AM 34.0 °F 31.0 °F 30.9 °F 89% 30.25 in 8.0 mi NW 3.5 mph - N/A   Overcast
3:53 AM 34.0 °F 29.8 °F 30.9 °F 89% 30.25 in 6.0 mi NW 4.6 mph - N/A   Overcast
4:53 AM 34.0 °F 29.8 °F 30.9 °F 89% 30.25 in 6.0 mi NNW 4.6 mph - N/A   Overcast
5:53 AM 34.0 °F 28.8 °F 30.9 °F 89% 30.27 in 7.0 mi NNW 5.8 mph - N/A   Overcast
6:53 AM 33.1 °F 26.9 °F 28.9 °F 85% 30.28 in 7.0 mi NNW 6.9 mph - N/A   Overcast
7:17 AM 32.0 °F 25.6 °F 28.4 °F 87% 30.28 in 7.0 mi NNW 6.9 mph - N/A   Overcast
7:53 AM 32.0 °F 27.5 °F 28.9 °F 88% 30.30 in 7.0 mi NNW 4.6 mph - N/A   Mostly Cloudy
8:53 AM 34.0 °F 28.8 °F 28.9 °F 82% 30.32 in 7.0 mi NNW 5.8 mph - N/A   Mostly Cloudy
9:53 AM 36.0 °F 29.6 °F 30.0 °F 79% 30.33 in 8.0 mi NNW 8.1 mph - N/A   Mostly Cloudy
10:53 AM 35.1 °F 27.4 °F 28.9 °F 78% 30.34 in 8.0 mi NNW 10.4 mph - N/A   Mostly Cloudy
11:53 AM 39.0 °F 33.4 °F 28.0 °F 65% 30.31 in 9.0 mi NNE 8.1 mph - N/A   Scattered Clouds
12:53 PM 42.1 °F 37.7 °F 28.9 °F 60% 30.30 in 10.0 mi NNW 6.9 mph - N/A   Partly Cloudy
1:53 PM 44.1 °F 40.8 °F 28.9 °F 55% 30.30 in 10.0 mi NNW 5.8 mph - N/A   Partly Cloudy
2:53 PM 45.0 °F 41.8 °F 28.0 °F 52% 30.31 in 10.0 mi North 5.8 mph - N/A   Partly Cloudy
3:53 PM 44.1 °F 40.1 °F 27.0 °F 51% 30.32 in 10.0 mi NW 6.9 mph - N/A   Clear
4:53 PM 41.0 °F 38.0 °F 27.0 °F 57% 30.34 in 10.0 mi NNW 4.6 mph - N/A   Clear
5:53 PM 37.9 °F 34.4 °F 26.1 °F 62% 30.34 in 10.0 mi NNE 4.6 mph - N/A   Clear
6:53 PM 37.9 °F 34.4 °F 26.1 °F 62% 30.35 in 10.0 mi NE 4.6 mph - N/A   Clear
7:53 PM 33.1 °F 28.7 °F 27.0 °F 78% 30.38 in 10.0 mi NW 4.6 mph - N/A   Clear
8:53 PM 32.0 °F 27.5 °F 27.0 °F 82% 30.40 in 10.0 mi NNW 4.6 mph - N/A   Clear
9:53 PM 32.0 °F 28.7 °F 26.1 °F 79% 30.41 in 10.0 mi North 3.5 mph - N/A   Clear
10:53 PM 30.9 °F - 27.0 °F 85% 30.40 in 10.0 mi Calm Calm - N/A   Scattered Clouds
11:53 PM 34.0 °F 27.2 °F 24.1 °F 67% 30.38 in 10.0 mi NNE 8.1 mph - N/A   Mostly Cloudy